SCP
0 0 0 0 0 0 0 0 0 0 0 0 0 0 0 0 0 0 0 0 0 0 0 0 0 0 0 0 0 0 0 0 0 0 0 1 1 1 1 1 1 1 1 1
0 0 0 0 0 0 0 0 0 0 0 0 0 0 0 0 0 0 0 0 0 0 0 0 0 0 0 0 0 0 0 0 0 0 0 0 1 1 1 1 1 1 1 1
0 0 0 0 0 0 0 0 0 0 0 0 0 0 0 0 0 0 0 0 0 0 0 0 0 0 0 0 0 0 0 0 0 0 0 0 0 0 1 1 1 1 1 1
0 0 0 0 0 0 0 0 0 0 0 0 0 0 0 0 0 0 0 0 0 0 0 0 0 0 0 0 0 0 0 0 0 0 0 0 0 0 0 1 1 1 1 1
0 0 0 0 0 0 0 0 0 0 0 0 0 0 0 0 0 0 0 0 0 0 0 0 0 0 0 0 0 0 0 0 0 0 0 0 0 0 0 0 1 1 1 1
0 0 0 0 0 0 0 0 0 0 0 0 0 0 0 0 0 0 0 0 0 0 0 0 0 0 0 0 0 0 0 0 0 0 0 0 0 0 0 0 0 0 1 1
0 0 0 0 0 0 0 0 0 0 0 0 0 0 0 0 0 0 0 0 0 0 0 0 0 0 0 0 0 0 0 0 0 0 0 0 0 0 0 0 0 0 0 0
0 0 0 0 0 0 0 0 0 0 0 0 0 0 0 0 0 0 0 0 0 0 0 0 0 0 0 0 0 0 0 0 0 0 0 0 0 0 0 0 0 0 0 0
0 0 0 0 0 0 0 0 0 0 0 0 0 0 0 0 0 0 0 0 0 0 0 0 0 0 0 0 0 0 0 0 0 0 0 0 0 0 0 0 0 0 0 0
0 0 0 0 0 0 0 0 0 0 0 0 0 0 0 0 0 0 0 0 0 0 0 0 0 0 0 0 0 0 0 0 0 0 0 0 0 0 0 0 0 0 0 0
0 0 0 0 0 0 0 0 0 0 0 0 0 0 0 0 0 0 0 0 0 0 0 0 0 0 0 0 0 0 0 0 0 0 0 0 0 0 0 0 0 0 0 0
0 0 0 0 0 0 0 0 0 0 0 0 0 0 0 0 0 0 0 0 0 0 0 0 0 0 0 0 0 0 0 0 0 0 0 0 0 0 0 0 0 0 0 0
0 0 0 0 0 0 0 0 0 0 0 0 0 0 0 0 0 0 0 0 0 0 0 0 0 0 0 0 0 0 0 0 0 0 0 0 0 0 0 0 0 0 0 0
0 0 0 0 0 0 0 0 0 0 0 0 0 0 0 0 0 0 0 0 0 0 0 0 0 0 0 0 0 0 0 0 0 0 0 0 0 0 0 0 0 0 0 0
0 0 0 0 0 0 0 0 0 0 0 0 0 0 0 0 0 0 0 0 0 0 0 0 0 0 0 0 0 0 0 0 0 0 0 0 0 0 0 0 0 0 0 0
0 0 0 0 0 0 0 0 0 0 0 0 0 0 0 0 0 0 0 0 0 0 0 0 0 0 0 0 0 0 0 0 0 0 0 0 0 0 0 0 0 0 0 0
0 0 0 0 0 0 0 0 0 0 0 0 0 0 0 0 0 0 0 0 0 0 0 0 0 0 0 0 0 0 0 0 0 0 0 0 0 0 0 0 0 0 0 0
0 0 0 0 0 0 0 0 0 0 0 0 0 0 0 0 0 0 0 0 0 0 0 0 0 0 0 0 0 0 0 0 0 0 0 0 0 0 0 0 0 0 0 0
0 0 0 0 0 0 0 0 0 0 0 0 0 0 0 0 0 0 0 0 0 0 0 0 0 0 0 0 0 0 0 0 0 0 0 0 0 0 0 0 0 0 0 0
0 0 0 0 0 0 0 0 0 0 0 0 0 0 0 0 0 0 0 0 0 0 0 0 0 0 0 0 0 0 0 0 0 0 0 0 0 0 0 0 0 0 0 0
0 0 0 0 0 0 0 0 0 0 0 0 0 0 0 0 0 0 0 0 0 0 0 0 0 0 0 0 0 0 0 0 0 0 0 0 0 0 0 0 0 0 0 0
0 0 0 0 0 0 0 0 0 0 0 0 0 0 0 0 0 0 0 0 0 0 0 0 0 0 0 0 0 0 0 0 0 0 0 0 0 0 0 0 0 0 0 0
0 0 0 0 0 0 0 0 0 0 0 0 0 0 0 0 0 0 0 0 0 0 0 0 0 0 0 0 0 0 0 0 0 0 0 0 0 0 0 0 0 0 0 0
0 0 0 0 0 0 0 1 0 0 0 0 0 0 0 0 0 0 0 0 0 0 0 0 0 0 0 0 0 0 0 0 0 0 0 0 0 0 0 0 0 0 0 0
0 0 0 0 0 0 0 0 1 1 0 0 0 0 0 0 0 0 0 0 0 0 0 0 0 0 0 0 0 0 0 0 0 0 0 0 0 0 0 0 0 0 0 0
0 0 0 0 0 0 0 0 1 1 1 1 0 0 0 0 0 0 0 0 0 0 0 0 0 0 0 0 0 0 0 0 0 0 0 0 0 0 0 0 0 0 0 0
1 0 1 1 1 0 0 0 0 1 1 1 0 0 0 0 0 0 0 0 0 0 0 0 0 0 0 0 0 0 0 0 0 0 0 0 0 0 0 0 0 0 0 0
Wind_Speed
2 2 3 2 1 1 3 6 9 10 13 12 11 12 11 12 14 15 15 15 15 15 15 15 16 15 15 16 16 16 16 17 17 17 16 16 16 17 17 16 17 16 16 17
3 1 3 5 4 4 3 6 9 11 12 10 10 10 12 14 15 16 15 16 16 17 17 16 16 16 16 16 15 15 16 17 17 17 17 17 16 16 16 16 16 16 16 16
5 1 7 7 5 5 5 7 10 12 13 13 13 13 14 14 14 14 16 17 17 17 16 16 16 16 16 15 15 15 16 16 16 17 17 16 17 16 16 15 15 15 15 15
6 5 8 4 3 2 6 9 8 9 12 13 13 13 14 11 11 14 16 17 17 16 17 17 16 16 15 16 16 16 16 16 16 17 17 16 15 16 15 13 13 13 13 14
7 9 8 4 5 3 6 10 5 9 12 13 13 14 9 7 11 14 15 16 15 16 17 17 16 16 15 16 16 16 16 16 16 16 16 16 15 15 13 12 12 12 12 13
8 10 10 2 7 2 5 6 3 8 11 13 13 13 10 13 14 15 15 14 15 16 17 16 15 15 16 16 16 16 16 16 16 16 15 15 15 13 12 11 12 11 11 11
10 11 7 7 7 4 7 8 7 8 9 11 11 11 14 15 15 14 15 16 16 15 15 15 15 15 16 16 15 15 15 16 16 15 15 14 13 12 10 10 10 11 11 10
6 8 2 10 6 4 6 4 5 7 8 10 11 12 13 14 14 15 15 16 16 15 15 15 14 14 15 15 15 15 15 15 15 15 13 12 11 10 9 9 9 9 9 9
5 4 4 5 4 2 3 5 5 7 8 9 11 12 14 14 14 14 15 15 15 15 15 15 14 14 15 15 15 15 15 15 14 14 12 11 10 10 8 7 6 6 6 7
7 6 4 5 6 5 5 5 5 5 7 9 11 13 13 13 13 14 14 15 14 15 15 15 14 14 14 14 14 14 15 14 13 12 11 10 8 7 6 6 5 5 5 5
10 8 6 7 7 6 5 4 4 5 6 8 10 12 13 12 13 13 14 14 14 14 14 15 15 15 14 13 13 14 14 12 12 10 9 9 8 6 6 5 4 5 5 4
7 4 6 3 4 4 5 5 4 5 6 7 9 11 12 12 12 13 14 14 14 15 15 15 14 14 14 12 12 13 11 11 9 8 8 7 7 5 2 4 3 4 5 5
8 5 5 2 4 5 5 4 3 4 5 8 8 9 11 12 12 13 13 14 15 15 15 14 14 14 13 13 13 13 12 11 9 8 7 7 6 6 4 1 3 3 2 3
6 5 6 7 6 6 5 3 3 4 5 6 8 9 10 11 13 13 14 14 14 14 14 13 14 14 13 13 13 13 12 10 9 8 7 6 6 6 5 4 1 1 3 2
9 11 8 5 6 6 5 5 5 5 5 6 7 8 10 12 13 13 13 13 13 14 13 13 14 14 14 13 13 13 10 8 8 8 6 5 5 5 4 4 2 2 1 3
8 10 9 9 8 8 7 6 6 5 5 6 7 8 10 11 12 12 12 12 13 14 13 13 13 14 14 13 12 10 8 9 9 8 6 5 5 4 4 3 3 2 2 1
9 12 12 12 10 9 8 6 5 4 4 5 7 8 10 11 11 12 13 13 12 12 11 11 13 14 14 12 12 8 8 7 8 7 5 5 5 4 4 3 3 2 2 2
10 10 10 9 9 8 8 6 5 4 4 4 6 8 9 10 11 12 13 13 12 11 11 12 14 15 13 12 11 8 7 7 6 5 5 5 5 4 4 4 4 3 1 2
7 7 7 7 7 7 6 6 5 3 3 4 6 7 8 9 10 11 12 12 11 11 13 14 16 14 13 13 13 8 7 7 5 4 4 3 3 4 4 4 3 3 2 2
5 6 7 7 7 7 6 5 5 4 4 4 5 7 8 9 9 10 11 10 7 8 12 14 14 12 12 12 15 9 7 6 5 4 4 4 5 4 4 4 3 3 3 2
4 6 7 8 8 8 7 6 6 6 5 4 5 6 7 8 9 9 9 9 8 10 13 12 9 9 11 13 14 8 6 6 4 4 4 4 4 4 4 4 4 3 3 3
6 6 7 8 8 8 7 7 7 7 6 5 5 5 6 7 8 8 8 6 8 10 10 8 8 12 16 16 8 7 6 6 5 4 4 4 4 4 4 4 4 4 4 4
7 6 8 8 8 8 8 8 8 8 7 6 5 5 5 6 6 7 7 7 8 11 10 7 11 17 19 10 7 7 7 6 6 5 4 3 4 4 4 5 5 5 5 4
9 8 8 8 8 8 9 9 8 7 7 7 5 4 4 4 4 4 5 5 6 9 8 7 11 15 14 6 6 6 6 6 6 5 5 4 4 4 4 4 4 5 5 6
11 10 9 9 9 9 9 9 9 9 9 6 6 5 4 2 4 4 5 7 6 7 7 7 8 12 9 6 6 6 6 6 7 7 5 4 4 4 4 4 5 5 5 6
11 10 9 9 9 8 7 7 7 7 7 7 5 4 3 1 2 3 3 5 7 7 6 6 7 7 7 7 7 7 6 6 6 5 6 5 5 5 5 5 5 5 5 6
12 10 8 9 9 9 7 7 7 7 7 7 6 4 3 2 1 2 3 4 5 5 5 5 6 6 6 6 6 6 6 5 5 6 5 5 4 4 4 5 5 5 5 6
Wind_Direction
31 3 299 297 282 315 348 346 326 329 321 334 346 335 325 317 318 319 319 320 321 318 316 314 311 310 308 307 306 306 302 299 297 296 293 289 285 282 277 272 266 258 252 248
231 226 274 262 242 251 295 323 323 318 325 351 334 317 316 319 321 320 322 322 321 318 316 314 312 310 308 307 306 305 302 300 299 297 295 291 288 285 281 274 268 263 256 250
291 253 273 256 224 245 284 321 322 321 330 334 325 324 323 320 317 320 322 321 319 318 315 313 311 311 309 308 307 304 301 299 298 296 293 292 289 286 283 278 272 265 259 254
291 274 276 49 91 275 293 305 312 318 326 330 324 323 312 309 321 321 319 318 318 316 314 313 315 314 312 310 308 305 303 302 300 298 295 293 290 286 283 278 273 267 262 255
283 284 288 151 176 240 295 303 319 326 327 325 328 313 311 17 337 321 318 318 316 315 315 315 314 316 315 310 309 306 306 305 303 301 298 294 289 285 283 278 272 266 260 253
270 287 297 63 124 123 277 281 36 329 323 326 323 314 336 349 330 324 321 319 317 316 315 314 317 319 312 308 308 307 308 307 305 303 299 296 293 288 283 277 271 267 260 252
271 277 286 109 133 196 278 355 1 330 325 321 323 314 317 323 324 323 319 318 318 318 316 317 317 315 309 309 309 310 311 307 306 304 301 297 295 290 283 274 271 266 260 254
270 275 301 130 171 256 332 348 322 322 321 319 314 312 316 320 321 320 320 321 323 320 318 318 318 315 311 310 311 312 309 307 306 305 303 302 300 294 287 276 268 262 254 250
284 310 79 178 229 286 315 298 311 315 319 319 314 317 321 321 321 321 322 324 323 321 319 318 320 318 311 312 314 312 308 308 308 306 304 303 300 297 292 279 265 261 251 242
263 261 228 220 233 241 250 274 297 306 312 314 314 319 321 322 321 322 324 325 324 321 319 320 321 318 313 314 315 312 310 310 309 308 309 310 305 297 292 288 278 267 258 254
257 267 250 227 227 234 231 243 265 287 304 312 315 318 321 319 320 323 323 324 323 320 319 320 322 318 317 318 317 314 312 312 311 311 313 312 311 307 307 309 308 289 280 271
274 265 242 228 176 199 215 232 258 288 302 311 316 318 319 318 321 322 323 323 321 322 322 322 322 319 319 320 318 315 313 314 312 312 314 312 313 316 270 274 291 276 274 289
266 260 246 189 180 193 211 224 244 273 297 309 316 318 318 318 319 323 323 324 325 324 322 321 321 319 321 324 321 316 313 313 311 312 314 319 323 323 323 242 212 229 247 259
236 226 223 215 207 194 204 208 238 265 287 303 314 318 318 320 322 325 327 325 325 323 322 324 323 323 327 327 322 316 314 311 310 310 315 322 328 328 329 343 354 144 160 175
222 218 228 207 188 182 194 208 238 264 293 308 315 319 323 324 323 325 325 325 326 325 327 329 326 327 330 326 321 317 317 319 321 317 320 331 333 335 344 355 359 20 75 138
225 215 216 204 200 196 202 217 247 278 301 311 317 324 325 323 321 323 326 330 331 329 328 328 327 329 328 324 321 317 316 313 313 317 329 342 348 352 1 9 13 20 26 36
219 210 209 211 208 207 211 222 243 272 293 306 320 323 323 324 324 329 331 335 332 325 326 332 332 330 326 324 323 318 316 319 310 314 344 353 357 4 8 19 30 37 44 40
231 227 216 212 207 201 202 208 221 243 277 304 312 320 326 328 329 331 330 331 328 327 338 341 338 329 325 329 329 319 318 325 332 342 355 3 1 8 18 26 28 30 46 126
236 221 199 186 183 185 188 194 205 223 248 281 305 319 324 326 329 328 328 327 328 334 342 338 331 326 330 335 331 316 319 327 336 344 356 2 358 25 27 26 20 12 13 32
235 212 194 180 177 180 182 186 197 214 237 268 293 309 322 331 331 329 327 322 344 346 334 330 327 330 333 334 329 319 327 333 342 350 7 12 24 32 35 28 12 6 14 20
258 223 206 195 189 187 188 194 205 218 230 251 280 304 319 325 328 328 325 327 348 353 334 321 326 338 336 327 313 321 336 344 351 1 14 19 28 32 35 30 27 29 32 34
296 256 233 216 205 201 194 197 207 218 228 243 268 294 310 319 327 327 326 335 340 352 332 329 342 341 332 320 321 339 344 349 360 7 20 23 27 33 39 40 44 45 46 49
305 278 255 237 224 219 209 208 209 215 224 234 253 279 305 322 325 324 327 351 343 342 325 338 341 334 327 324 339 343 347 354 357 1 13 25 31 36 43 45 47 47 48 50
306 287 265 249 235 225 219 216 212 214 222 229 233 250 280 298 310 329 336 341 343 332 326 345 336 330 323 333 348 348 349 353 351 349 2 21 34 36 43 53 57 54 52 52
301 290 273 251 236 232 227 220 212 211 217 222 223 216 240 283 313 330 332 335 348 333 330 342 336 329 333 348 352 351 353 359 349 341 356 7 18 32 37 45 53 58 58 57
293 280 271 256 248 242 232 222 218 213 212 212 212 204 214 236 285 311 327 339 347 340 336 345 345 341 347 351 355 354 353 351 346 349 359 4 19 25 31 31 39 46 54 57
283 274 262 255 246 237 230 225 224 218 214 211 204 189 190 207 265 343 349 351 352 349 350 353 351 350 350 353 353 355 356 357 355 352 354 0 11 20 22 17 26 37 44 52